#timestamp,LO_Frequency,Hit,StdDev 
1514415615.4,286047002.1,N
1514415635.3,286047000.6,N
1514415655.1,286046999.4,N
1514415656.0,286046999.4,N
1514415675.8,286046998.4,N
1514415695.7,286046998.2,N
1514415715.5,286047002.3,N
1514415735.4,286047001.5,N
1514415755.2,286047002.3,N
1514415775.0,286046999.9,N
1514415775.9,286046999.9,N
1514415795.8,286046998.2,N
1514415815.6,286046998.4,N
1514415835.4,286046995.9,N
1514415855.3,286046995.5,N
1514415875.1,286046995.7,N
1514415895.9,286046996.7,N
1514415915.7,286046997.2,N
1514415935.5,286046999.3,N
1514415955.4,286046998.2,N
1514415975.2,286046998.1,N
1514415995.0,286046998.5,N
1514415996.0,286046998.5,N
1514416015.8,286046998.7,N
1514416035.6,286047000.3,N
1514416055.5,286046996.9,N
1514416075.3,286046998.8,N
1514416095.1,286047001.0,N
1514416115.9,286047002.8,N
1514416135.7,286047003.8,N
1514416155.6,286046998.2,N
1514416175.4,286046996.9,N
1514416195.2,286046998.6,N
1514416215.1,286046998.1,N
1514416216.0,286046998.1,N
1514416235.8,286047000.5,N
1514416255.6,286047000.9,N
1514416275.5,286047002.4,N
1514416295.3,286047000.0,N
1514416315.2,286046998.2,N
1514416335.9,286047000.4,N
1514416355.7,286047000.6,N
1514416375.6,286047001.7,N
1514416395.4,286047000.0,N
1514416415.3,286046997.3,N
1514416435.1,286046998.5,N
1514416436.0,286046998.5,N
1514416455.8,286047002.1,N
1514416475.7,286047002.4,N
1514416495.5,286047002.3,N
1514416515.3,286047002.4,N
1514416535.2,286047003.6,N
1514416555.0,286047002.3,N
1514416555.9,286047002.3,N
1514416575.8,286046999.7,N
1514416595.6,286047000.6,N
1514416615.4,286047000.7,N
1514416635.3,286047002.8,N
1514416655.1,286047001.8,N
1514416675.9,286047002.2,N
1514416695.7,286047001.3,N
1514416715.5,286047001.3,N
1514416735.4,286047004.6,N
1514416755.2,286047005.7,Y
1514416775.1,286047004.7,P
1514416776.0,286047004.7,N
1514416795.8,286047004.7,N
1514416815.6,286047003.2,N
1514416835.5,286047005.9,Y
1514416855.3,286047004.2,P
1514416875.2,286047001.4,P
1514416895.9,286046999.8,N
1514416915.7,286047002.3,N
1514416935.6,286046998.3,N
1514416955.4,286046998.5,N
1514416975.2,286046997.6,N
1514416995.1,286046997.1,N
1514416996.0,286046997.1,N
1514417015.8,286046996.1,N
1514417035.7,286046996.2,N
1514417055.5,286046994.0,N
1514417075.3,286046996.0,N
1514417095.2,286046995.2,N
1514417115.0,286046996.6,N
1514417115.9,286046996.6,N
1514417135.8,286046998.9,N
1514417155.6,286046998.8,N
1514417175.4,286046997.0,N
1514417195.3,286046999.0,N
1514417215.1,286046999.1,N
1514417235.8,286047000.0,N
1514417255.7,286047000.4,N
1514417275.5,286046999.4,N
1514417295.4,286047000.7,N
1514417315.2,286046996.6,N
1514417335.0,286046999.3,N
1514417335.9,286046999.3,N
1514417355.8,286046996.7,N
1514417375.6,286046997.4,N
1514417395.4,286046996.4,N
1514417415.3,286046995.6,N
1514417435.1,286046991.9,Y
1514417455.9,286046986.3,P
1514417475.7,286046996.1,N
1514417495.5,286046993.6,N
1514417515.4,286046997.6,N
1514417535.2,286046995.0,N
1514417555.1,286046996.9,N
1514417556.0,286046996.9,N
1514417575.8,286046999.6,N
1514417595.6,286046995.5,N
1514417615.5,286046995.3,N
1514417635.3,286046995.5,N
1514417655.1,286046994.9,N
1514417675.9,286046993.3,N
1514417695.7,286046993.4,N
1514417715.6,286046993.4,N
1514417735.4,286046996.1,N
1514417755.2,286046998.5,N
1514417775.1,286046997.6,N
1514417776.0,286046997.6,N
1514417795.8,286046996.0,N
1514417815.7,286046993.6,N
1514417835.5,286046993.7,N
1514417855.3,286046996.4,N
1514417875.2,286046994.5,N
1514417895.0,286046995.7,N
1514417895.9,286046995.7,N
1514417915.7,286046995.0,N
1514417935.6,286046998.0,N
1514417955.4,286046995.6,N
1514417975.3,286046994.2,N
1514417995.1,286046991.4,Y
1514418015.8,286046997.9,P
1514418035.7,286046997.1,N
1514418055.5,286046998.9,N
1514418075.4,286046999.3,N
1514418095.2,286046996.8,N
1514418115.0,286046999.2,N
1514418115.9,286046999.2,N
1514418135.8,286046997.0,N
1514418155.6,286046999.4,N
1514418175.4,286046996.5,N
1514418195.3,286046997.0,N
1514418215.1,286046996.7,N
1514418235.9,286046998.6,N
1514418255.7,286046998.7,N
1514418275.5,286046998.7,N
1514418295.4,286047000.5,N
1514418315.2,286047000.8,N
1514418335.0,286047001.2,N
1514418335.9,286047001.2,N
1514418355.8,286046995.5,N
1514418375.6,286046996.7,N
1514418395.5,286046997.2,N
1514418415.3,286046998.0,N
1514418435.1,286046997.7,N
1514418455.9,286046995.3,N
1514418475.7,286046994.5,Y
1514418495.6,286046992.4,P
1514418515.4,286046991.9,N
1514418535.2,286046990.6,P
1514418555.1,286046991.8,N
1514418556.0,286046991.8,Y
1514418575.8,286047003.0,P
1514418595.6,286047004.2,N
1514418615.5,286047001.3,N
1514418635.3,286047004.1,N
1514418655.2,286047001.8,N
1514418675.9,286046999.9,N
1514418695.7,286047002.7,N
1514418715.6,286047002.7,N
1514418735.4,286047000.9,N
1514418755.2,286046997.5,N
1514418775.1,286046993.5,N
1514418776.0,286046993.5,N
1514418795.8,286046992.1,N
1514418815.7,286046996.0,N
1514418835.5,286046997.4,N
1514418855.3,286046998.4,N
1514418875.2,286047002.8,N
1514418895.0,286047004.2,N
1514418895.9,286047004.2,N
1514418915.8,286047003.7,N
1514418935.6,286047003.3,N
1514418955.4,286047002.9,N
1514418975.3,286047005.1,N
1514418995.1,286047007.2,N
1514419015.8,286047008.3,N
1514419035.7,286047010.6,N
1514419055.5,286047007.9,N
1514419075.4,286047010.6,N
1514419095.2,286047010.4,N
1514419115.0,286047007.8,N
1514419115.9,286047007.8,N
1514419135.8,286047009.7,N
1514419155.6,286047008.0,N
1514419175.5,286047011.9,N
1514419195.3,286047013.7,N
